Wind_Speed
58 58 56 51 48 48 50 51 53 54 55 53 53 54 55 54 54 57 57 58 54 51 48 46 52 54 53 56 60 61 58 57 58 53 54 53 49 42 42 41 41 42 40
44 45 47 47 49 50 49 47 45 44 44 43 40 40 40 41 40 39 37 35 38 41 44 43 42 44 47 51 54 56 58 57 55 52 53 55 50 42 41 36 34 32 32
41 41 41 40 39 38 37 34 32 33 32 30 31 31 28 24 19 18 17 20 23 28 32 36 37 36 39 39 40 41 42 43 43 42 38 34 40 38 34 29 25 27 30
34 31 29 29 31 31 29 27 26 25 26 26 24 23 20 20 18 13 12 14 17 20 22 24 25 29 28 26 25 23 20 21 22 24 24 34 28 22 22 23 24 25 28
22 22 22 21 23 23 21 21 20 18 18 18 17 16 14 13 12 13 13 14 16 16 20 21 18 17 14 18 21 19 15 21 19 24 15 18 14 17 20 20 22 22 22
17 16 16 19 20 19 18 14 14 14 12 12 13 15 14 13 13 12 13 16 18 19 21 21 21 20 18 19 18 18 18 17 19 12 17 14 17 17 19 18 20 23 23
11 10 15 18 17 18 18 18 18 19 19 19 18 17 16 16 16 16 16 19 20 22 22 21 21 22 22 25 27 24 23 19 17 17 13 18 19 19 16 16 20 21 19
5 10 13 14 16 16 14 16 16 17 18 19 17 16 17 17 19 21 22 22 23 24 24 23 22 23 23 22 20 16 16 14 14 17 16 16 15 15 16 17 14 15 13
7 9 13 15 16 15 15 15 14 14 16 18 18 18 20 21 21 19 18 22 21 21 21 19 18 18 19 18 18 17 15 13 12 11 11 12 13 15 18 14 10 11 6
7 7 14 13 12 12 13 15 15 17 18 19 20 19 19 20 21 21 21 23 21 21 21 21 20 17 13 13 14 15 13 11 9 7 7 7 7 8 9 12 12 8 8
4 8 13 17 17 15 16 18 19 19 19 20 20 19 19 22 24 25 25 24 22 20 19 17 16 16 15 15 15 15 14 14 13 12 12 11 10 10 10 11 13 16 12
6 9 13 17 17 16 16 17 18 20 20 21 21 21 23 22 22 24 23 22 21 20 20 21 22 21 20 19 19 19 18 18 17 17 16 15 15 14 12 13 12 14 18
13 14 14 15 13 14 15 17 19 21 22 22 22 22 23 24 25 25 24 22 21 21 22 22 21 20 20 21 21 21 20 20 20 19 18 18 17 16 14 14 15 16 17
13 13 12 11 13 14 17 20 21 21 23 23 23 23 24 24 25 26 25 23 22 21 20 20 19 20 21 22 23 23 22 21 20 20 19 19 19 18 17 16 15 14 15
12 11 12 13 15 17 20 21 22 23 23 23 22 23 25 26 28 29 27 24 24 22 20 20 22 23 24 24 24 23 23 23 23 24 24 22 19 17 18 17 16 15 14
12 13 14 15 16 18 20 22 23 24 24 25 26 27 29 28 29 28 27 27 26 24 23 23 23 23 23 23 23 24 25 25 26 26 24 21 19 17 14 14 15 14 13
14 14 14 16 18 19 21 22 24 25 25 26 27 29 29 29 29 28 28 28 26 26 26 25 24 23 23 23 24 24 26 28 29 27 22 19 17 16 14 12 11 11 11
14 15 15 17 18 20 22 24 24 25 26 27 27 29 28 29 30 30 29 29 27 26 25 24 25 24 24 24 24 24 26 29 29 25 21 17 15 13 11 9 8 7 8
14 14 16 18 19 21 23 24 25 25 26 27 27 28 29 30 31 31 31 30 27 25 26 26 26 26 26 25 25 25 27 29 25 22 19 16 12 11 10 6 4 4 4
15 17 20 21 22 22 23 24 24 25 25 27 28 29 30 31 31 31 30 29 27 25 26 27 28 27 28 27 27 27 28 26 23 21 19 14 11 9 8 3 2 3 5
17 19 21 23 24 24 24 23 24 25 26 28 30 31 31 31 31 31 30 28 27 27 27 27 28 29 29 29 28 28 28 24 24 22 18 14 10 10 6 6 7 7 7
18 19 21 23 24 24 23 23 24 25 27 29 30 30 30 30 31 32 31 30 29 29 28 28 28 29 29 29 28 27 25 24 25 20 15 12 12 10 10 10 11 11 12
20 21 23 23 24 23 23 24 25 27 29 30 29 29 29 32 33 33 33 33 32 32 31 30 29 28 28 28 28 26 22 23 19 16 15 15 15 15 16 14 12 15 13
26 27 28 27 26 25 24 25 27 28 29 29 29 30 33 34 34 34 34 34 35 34 32 30 27 26 25 26 26 24 20 21 16 14 12 14 14 15 13 13 12 12 15
30 33 31 29 27 25 25 27 28 29 30 30 32 34 35 35 35 36 36 36 35 33 31 28 26 24 22 23 23 22 18 18 15 13 13 13 12 12 13 12 13 15 17
29 33 37 33 29 27 27 28 29 30 32 33 34 35 36 37 37 37 37 36 34 32 30 27 25 23 21 20 19 18 15 15 13 11 12 12 12 12 12 12 14 17 18
Wind_Direction
290 290 291 293 294 293 292 290 288 287 288 288 287 288 288 287 286 285 284 283 283 283 281 272 270 271 269 270 270 278 274 281 270 280 280 280 279 273 272 268 267 265 267
295 299 300 299 299 299 297 295 293 292 291 292 292 295 296 295 292 289 289 286 284 286 287 283 284 286 287 286 281 278 277 280 281 282 277 276 274 271 269 266 264 262 265
301 302 303 303 301 301 302 302 301 301 300 301 306 310 311 317 317 314 310 304 298 296 295 293 292 293 298 291 282 277 275 276 278 278 276 271 269 263 263 259 257 259 264
303 306 310 310 311 309 309 309 309 308 310 317 315 314 319 322 319 321 319 314 316 320 319 312 302 301 301 299 295 293 290 276 291 285 274 272 262 253 250 250 256 261 263
312 315 324 327 326 328 327 322 320 326 324 323 322 330 344 348 345 342 342 339 326 319 322 322 321 319 314 318 310 317 304 299 298 298 258 281 269 263 258 258 259 259 263
319 333 336 346 356 357 358 9 9 5 10 22 30 31 25 15 0 351 335 326 326 329 328 326 326 323 312 311 313 308 305 307 301 295 307 287 264 261 262 265 267 264 265
330 356 11 10 15 17 24 32 36 33 29 28 25 16 9 1 353 346 340 332 329 323 321 320 319 315 307 307 313 309 302 298 296 283 275 291 265 285 279 277 292 272 267
25 26 26 23 25 27 27 26 22 19 16 15 8 0 353 345 337 330 327 328 326 323 315 316 319 321 319 319 320 310 319 317 294 292 290 280 293 295 291 287 278 270 261
73 36 23 22 23 23 18 14 8 3 2 354 348 343 340 340 345 349 340 336 334 335 345 329 318 320 324 332 336 332 327 312 305 300 290 283 283 284 279 277 261 264 211
53 31 15 17 17 21 18 8 9 11 11 10 5 1 355 350 348 345 346 339 345 347 352 355 357 1 2 5 11 12 15 9 0 343 339 333 318 317 319 275 244 218 243
59 29 33 39 40 38 35 31 20 10 4 2 1 358 0 0 358 354 354 351 351 355 0 1 2 2 1 359 356 355 353 349 344 337 330 324 310 303 306 311 239 220 245
51 57 54 42 41 37 25 14 11 7 5 2 358 354 351 352 352 350 350 352 355 356 357 356 354 353 353 353 352 350 346 342 337 332 324 315 306 298 289 279 269 250 246
76 63 46 34 27 15 9 6 3 358 356 355 355 352 347 343 343 344 347 350 351 353 354 352 351 353 354 353 351 348 346 343 340 336 330 323 317 309 299 287 274 264 261
62 50 36 23 13 4 1 358 353 353 355 356 354 350 345 342 345 351 350 350 351 349 349 343 346 351 353 352 350 348 346 344 341 338 334 328 319 310 302 294 287 279 273
50 42 29 18 9 3 358 356 355 356 356 355 352 350 349 350 353 354 350 355 353 346 344 344 350 353 352 351 348 346 346 347 345 342 336 329 321 309 299 291 284 280 273
42 32 21 11 4 360 357 356 355 356 356 356 356 355 352 351 353 353 353 355 352 348 348 352 353 350 347 345 345 348 349 347 344 340 334 326 321 314 303 287 278 273 268
29 19 9 2 359 356 355 354 355 356 357 357 356 354 351 352 353 354 351 352 350 353 355 353 349 347 345 344 343 345 347 346 343 339 334 329 324 318 310 296 278 263 256
17 10 0 356 354 354 354 355 356 356 357 357 355 352 351 352 353 350 350 352 355 355 355 354 351 348 347 344 342 343 344 344 343 339 337 335 333 330 322 306 282 263 242
14 8 2 358 356 356 356 355 356 356 355 354 352 351 352 352 352 353 356 357 355 355 357 357 355 352 349 347 346 344 345 346 344 342 343 344 342 336 335 326 296 249 225
18 12 9 2 359 358 357 356 356 355 353 352 352 352 352 353 354 354 358 359 358 357 357 358 357 356 353 351 350 348 349 350 350 350 350 352 351 353 352 4 57 133 156
19 15 9 4 2 358 356 356 355 354 352 351 352 352 353 354 354 354 355 356 357 357 355 355 355 356 355 354 353 352 352 355 356 358 359 7 11 7 27 89 100 114 128
25 18 10 6 2 360 357 355 354 353 351 350 351 353 353 353 353 352 351 351 350 350 350 349 350 352 355 355 355 355 356 360 0 11 23 38 25 47 81 93 98 104 112
20 15 12 8 4 1 358 356 354 351 350 351 352 352 351 348 347 348 349 349 349 347 346 345 345 346 350 354 355 357 1 3 17 36 55 54 64 72 85 86 99 108 104
22 18 13 10 4 360 357 354 352 351 351 351 350 348 347 345 345 345 345 345 345 344 345 345 344 345 347 352 355 0 3 6 37 54 63 68 72 82 76 82 93 95 103
21 17 12 8 3 358 355 353 352 352 351 348 345 344 344 343 342 341 341 342 343 344 345 345 344 345 347 352 356 1 6 14 47 66 72 72 78 75 83 82 94 99 112
8 7 7 3 360 356 354 352 352 352 349 346 343 343 343 341 339 339 339 340 342 344 346 347 348 349 350 354 358 3 13 17 50 73 75 75 76 85 93 92 97 98 109
Height
5732 5727 5721 5715 5709 5703 5698 5693 5688 5683 5678 5673 5668 5664 5659 5654 5650 5645 5640 5636 5633 5629 5625 5622 5619 5615 5611 5608 5605 5601 5599 5594 5591 5594 5590 5590 5590 5589 5589 5587 5587 5587 5588
5718 5713 5707 5701 5695 5689 5683 5678 5674 5669 5665 5660 5656 5652 5647 5641 5635 5630 5626 5623 5621 5618 5615 5611 5606 5601 5598 5593 5589 5585 5582 5580 5578 5578 5576 5576 5574 5575 5575 5576 5576 5576 5577
5706 5701 5696 5689 5683 5677 5671 5666 5662 5658 5654 5650 5647 5642 5637 5631 5626 5622 5619 5617 5614 5611 5607 5602 5597 5592 5587 5580 5574 5572 5570 5569 5567 5565 5562 5561 5561 5564 5564 5565 5566 5567 5567
5699 5694 5689 5683 5677 5671 5665 5660 5655 5651 5647 5644 5641 5636 5631 5626 5623 5619 5616 5613 5610 5606 5601 5594 5589 5585 5579 5573 5568 5566 5564 5562 5559 5556 5554 5552 5551 5553 5555 5557 5558 5559 5559
5692 5688 5683 5678 5672 5666 5661 5655 5651 5647 5643 5640 5637 5633 5628 5624 5620 5617 5613 5610 5606 5602 5598 5592 5586 5581 5576 5571 5567 5563 5560 5557 5553 5550 5547 5547 5547 5548 5549 5550 5551 5552 5552
5688 5684 5680 5674 5669 5664 5659 5655 5650 5646 5643 5639 5636 5632 5628 5624 5620 5617 5613 5610 5605 5600 5595 5590 5584 5579 5574 5569 5564 5560 5556 5553 5550 5546 5545 5543 5544 5544 5545 5545 5545 5544 5545
5685 5683 5678 5674 5670 5665 5661 5657 5653 5650 5646 5642 5638 5634 5630 5626 5622 5617 5613 5608 5603 5597 5591 5586 5581 5576 5571 5565 5560 5556 5552 5549 5546 5544 5542 5541 5539 5539 5537 5538 5537 5536 5538
5685 5682 5679 5676 5671 5667 5663 5659 5656 5652 5647 5643 5639 5635 5631 5626 5621 5616 5611 5605 5599 5592 5586 5580 5576 5571 5566 5561 5555 5551 5548 5545 5543 5540 5539 5537 5535 5534 5534 5533 5533 5532 5532
5685 5683 5680 5676 5671 5668 5665 5661 5657 5653 5649 5645 5640 5636 5631 5625 5620 5614 5608 5602 5596 5590 5583 5577 5572 5567 5562 5557 5552 5548 5544 5541 5539 5536 5535 5533 5532 5531 5529 5529 5529 5528 5530
5685 5683 5680 5675 5671 5668 5665 5662 5658 5654 5650 5645 5640 5635 5630 5624 5618 5612 5606 5599 5593 5588 5581 5576 5571 5566 5561 5556 5552 5548 5545 5541 5538 5536 5533 5531 5529 5528 5526 5525 5525 5526 5527
5686 5683 5680 5676 5672 5670 5667 5664 5660 5656 5651 5646 5640 5635 5629 5623 5617 5610 5604 5597 5591 5586 5581 5576 5571 5566 5562 5557 5553 5548 5545 5541 5538 5535 5533 5530 5528 5526 5524 5523 5522 5523 5524
5686 5684 5681 5678 5675 5672 5668 5664 5661 5656 5651 5646 5640 5634 5628 5622 5616 5609 5603 5596 5590 5585 5580 5575 5570 5565 5560 5555 5551 5546 5542 5539 5535 5532 5530 5527 5525 5523 5522 5520 5519 5520 5520
5686 5684 5682 5679 5676 5673 5669 5665 5660 5655 5650 5645 5638 5632 5626 5620 5613 5607 5601 5595 5589 5584 5579 5574 5569 5564 5559 5554 5549 5545 5540 5536 5533 5529 5526 5523 5520 5518 5517 5516 5515 5515 5515
5687 5685 5683 5681 5677 5674 5669 5664 5660 5654 5649 5643 5637 5631 5625 5618 5611 5605 5599 5594 5588 5583 5578 5574 5569 5563 5558 5553 5548 5543 5539 5534 5530 5526 5522 5519 5515 5513 5512 5510 5509 5509 5509
5688 5686 5684 5681 5677 5673 5669 5664 5659 5654 5648 5643 5637 5630 5623 5616 5610 5604 5598 5592 5587 5582 5577 5572 5566 5560 5556 5551 5547 5542 5538 5532 5527 5522 5518 5514 5511 5508 5506 5505 5504 5504 5504
5690 5687 5684 5681 5677 5673 5668 5663 5658 5653 5647 5641 5635 5628 5621 5615 5609 5604 5598 5592 5586 5581 5575 5569 5564 5560 5555 5550 5545 5540 5535 5530 5524 5519 5515 5510 5506 5503 5501 5499 5499 5499 5499
5691 5688 5684 5681 5677 5672 5668 5662 5657 5651 5645 5639 5633 5627 5621 5615 5609 5604 5598 5591 5586 5579 5573 5568 5564 5559 5554 5549 5544 5538 5533 5527 5521 5515 5510 5506 5502 5499 5496 5495 5494 5494 5495
5692 5688 5685 5681 5676 5672 5666 5661 5656 5650 5644 5638 5633 5627 5621 5615 5609 5604 5597 5591 5584 5578 5573 5568 5562 5557 5552 5547 5541 5536 5530 5524 5518 5512 5507 5503 5499 5496 5493 5491 5490 5491 5492
5692 5689 5685 5681 5676 5671 5666 5660 5655 5650 5644 5639 5633 5628 5621 5615 5609 5602 5596 5589 5584 5578 5573 5567 5561 5555 5550 5544 5539 5533 5527 5521 5515 5509 5504 5500 5497 5494 5491 5489 5488 5489 5490
5692 5689 5685 5680 5675 5670 5665 5660 5655 5650 5645 5639 5634 5627 5621 5615 5608 5601 5595 5589 5583 5578 5572 5567 5561 5555 5549 5542 5536 5530 5524 5518 5512 5507 5502 5498 5495 5492 5490 5489 5488 5488 5489
5693 5689 5685 5680 5675 5670 5665 5660 5655 5650 5645 5639 5633 5627 5621 5614 5607 5601 5595 5589 5583 5577 5571 5566 5560 5554 5548 5541 5535 5529 5522 5516 5511 5505 5501 5497 5495 5492 5490 5489 5490 5490 5491
5693 5689 5685 5680 5675 5670 5665 5660 5655 5650 5644 5638 5632 5626 5620 5614 5607 5600 5594 5588 5582 5577 5571 5565 5559 5553 5547 5541 5534 5528 5522 5516 5511 5506 5502 5499 5497 5494 5493 5493 5493 5493 5494
5694 5690 5685 5681 5676 5670 5666 5661 5655 5650 5644 5637 5631 5625 5619 5612 5606 5599 5593 5587 5581 5575 5569 5563 5557 5551 5546 5540 5534 5528 5523 5518 5512 5508 5506 5504 5501 5500 5499 5499 5499 5499 5500
5694 5690 5685 5680 5675 5670 5665 5660 5655 5649 5643 5637 5631 5624 5618 5611 5604 5598 5591 5585 5579 5572 5566 5560 5555 5549 5545 5540 5534 5529 5523 5519 5515 5512 5510 5509 5507 5506 5505 5505 5504 5504 5505
5695 5691 5686 5681 5675 5670 5665 5660 5654 5648 5642 5636 5629 5622 5616 5609 5602 5595 5589 5582 5576 5569 5563 5558 5552 5548 5543 5539 5534 5529 5525 5521 5518 5516 5515 5514 5513 5512 5511 5510 5510 5510 5511
5695 5690 5685 5680 5674 5669 5664 5659 5653 5647 5640 5634 5627 5620 5613 5606 5599 5592 5586 5579 5573 5567 5561 5556 5551 5546 5542 5538 5535 5531 5527 5524 5521 5520 5519 5519 5518 5517 5516 5515 5515 5516 5516